Dewpoint
67 71 72 72 72 71 71 71 71 72 72 71 70 70 70 68 66 66 65 65 65 63 63 63 62 64 67 67 66 66 67 67 68 68 68 68 67 66 68 68 67 67 67
68 71 72 72 72 72 72 72 72 72 71 70 70 69 69 67 67 68 66 64 64 64 64 63 63 66 65 65 66 66 66 67 67 68 68 68 68 67 67 67 67 67 67
70 71 71 71 72 72 72 72 72 71 71 69 69 68 68 67 68 68 66 65 67 68 65 63 63 61 65 65 65 64 65 66 66 66 66 67 67 67 67 66 66 64 63
70 71 71 71 72 72 72 72 71 71 71 70 68 69 68 67 68 69 68 67 68 67 65 63 64 64 65 65 63 63 63 64 65 64 64 65 64 64 64 63 62 63 62
70 70 70 71 71 71 72 72 72 71 71 70 70 70 69 67 69 70 69 68 67 65 64 65 66 66 63 63 63 63 63 63 63 62 62 63 63 63 63 62 61 61 60
70 70 71 71 71 71 72 72 72 71 70 70 70 69 69 69 70 69 69 68 66 65 64 66 67 65 63 64 63 63 62 62 60 60 61 62 61 61 61 61 61 61 61
69 70 71 71 71 71 70 71 72 72 71 71 70 69 69 69 69 69 68 68 67 66 65 66 66 62 64 64 63 63 63 61 60 60 60 60 60 61 61 62 62 62 62
69 70 71 71 71 71 71 70 71 72 72 71 71 70 70 69 68 69 68 67 66 65 65 65 63 62 64 64 64 64 62 60 60 60 61 61 63 62 62 62 63 62 62
69 68 69 71 71 71 71 71 69 71 72 72 71 70 69 68 68 69 68 67 65 64 63 62 61 63 63 63 64 64 61 60 59 61 61 62 63 62 62 62 62 62 62
65 67 67 69 69 69 70 70 70 70 71 71 70 70 69 68 68 69 68 67 66 64 64 64 62 63 63 63 63 63 62 60 59 60 61 62 63 62 62 62 62 61 61
62 63 65 66 68 68 68 68 69 70 70 70 70 69 68 68 68 68 68 67 66 65 65 64 64 64 64 62 61 61 62 60 58 59 60 61 64 62 62 62 62 61 61
60 61 62 62 64 65 63 65 67 68 68 68 69 68 68 68 68 68 67 67 67 67 67 66 65 65 64 61 60 59 57 58 58 59 59 61 64 62 62 62 62 62 62
58 61 61 61 61 61 60 60 65 67 67 67 67 67 67 67 67 67 67 67 67 67 67 67 67 65 62 58 57 56 56 55 55 57 60 60 64 63 63 63 63 63 63
52 59 61 61 60 60 60 58 59 64 66 67 67 67 66 65 65 63 65 65 67 67 66 66 65 63 60 57 54 53 52 52 53 54 58 60 62 64 63 64 65 65 65
50 58 60 60 60 60 60 59 57 58 62 65 66 66 65 64 63 61 63 63 64 65 65 64 63 61 58 56 54 54 54 54 53 54 56 59 60 63 64 63 63 63 62
45 55 60 60 60 60 60 59 58 57 59 61 64 66 65 64 62 61 62 63 63 64 64 63 62 60 58 56 54 54 54 54 54 54 55 56 58 60 62 63 63 62 62
37 52 57 60 60 60 59 60 59 59 59 60 62 65 65 64 63 62 62 63 63 63 63 62 61 60 58 56 54 54 53 54 55 54 55 55 56 57 60 61 63 62 63
40 47 55 58 60 60 60 59 59 58 57 61 64 63 64 64 64 63 62 63 63 63 62 61 61 60 58 56 55 54 53 53 55 56 56 56 56 56 57 59 61 63 63
35 39 50 57 57 58 58 58 58 58 58 57 64 64 64 64 64 63 62 62 63 62 61 61 60 59 58 56 55 54 54 54 55 56 56 56 56 57 57 58 59 60 60
35 40 47 56 57 58 58 58 58 59 59 59 59 64 64 64 64 64 63 63 62 62 61 60 60 58 58 56 55 54 55 56 57 57 57 56 57 57 58 58 59 59 60
39 44 50 55 57 59 58 58 59 58 59 59 60 62 63 63 64 63 63 62 62 61 60 59 58 58 57 56 54 54 55 56 56 56 55 55 56 57 57 58 58 59 59
38 43 50 55 57 58 59 59 58 59 59 60 60 61 63 63 63 63 62 60 61 61 60 59 58 56 56 55 54 54 52 53 54 54 54 54 55 56 56 57 58 57 57
42 45 52 55 57 58 60 59 59 60 61 60 60 61 61 62 62 62 61 60 59 60 59 59 58 57 55 55 56 54 52 50 53 53 53 53 54 55 56 57 57 56 56
43 47 53 56 57 57 59 58 58 58 57 59 60 60 61 62 62 60 58 57 58 59 59 59 58 57 56 55 56 57 57 53 51 50 52 53 53 54 55 56 57 56 55
49 52 55 57 58 58 58 59 58 57 57 58 59 60 60 61 61 61 59 58 58 60 60 59 58 57 57 57 56 56 56 55 52 49 50 51 52 52 54 55 57 56 54
51 54 55 56 57 57 58 58 58 57 57 58 58 59 59 60 60 61 62 62 61 61 61 59 59 58 58 58 57 57 56 55 55 54 52 52 52 52 52 55 55 54 53
Wind_Speed
7 15 19 18 18 20 20 19 16 17 17 18 18 18 18 18 17 18 19 16 15 16 16 15 14 15 17 17 16 14 15 15 15 15 14 14 14 15 15 14 13 12 16
12 13 20 17 17 20 20 19 17 17 17 17 17 17 17 18 19 19 18 18 16 17 19 17 16 17 17 17 17 15 14 14 14 14 14 13 15 16 15 14 15 15 16
17 13 16 16 15 19 19 19 18 17 17 17 16 16 16 18 20 19 19 18 16 18 19 18 17 16 16 16 15 13 13 12 12 12 12 9 12 15 15 14 15 13 12
17 14 14 16 15 16 17 17 17 17 17 16 15 16 16 17 19 19 18 18 17 18 18 18 17 16 14 12 10 11 12 10 10 11 10 9 9 13 12 12 12 11 11
14 14 15 17 13 13 16 16 16 15 14 15 16 17 17 17 17 15 20 18 17 14 17 16 17 16 13 11 9 12 11 10 9 9 8 8 10 10 10 10 10 10 10
9 12 15 18 18 16 15 16 17 16 15 13 13 15 16 17 16 18 18 18 17 15 18 16 15 14 12 11 12 15 12 10 9 8 7 7 7 9 9 9 9 10 10
8 5 13 17 16 16 16 15 16 18 16 15 14 14 16 16 17 18 19 20 16 16 16 16 15 12 12 11 12 13 12 10 8 7 7 5 5 8 8 8 9 9 9
13 11 10 14 14 14 14 14 14 14 17 16 15 15 16 16 16 20 20 20 18 16 15 15 14 14 12 11 11 12 11 10 8 7 5 4 5 7 7 7 7 7 7
11 15 13 10 11 12 11 13 12 13 14 16 15 15 15 15 16 20 20 20 19 17 16 15 15 15 13 11 12 13 11 10 8 6 5 3 4 6 6 6 5 5 6
5 7 13 12 10 9 8 10 11 12 11 15 15 15 15 16 19 20 20 20 19 17 16 14 14 15 14 11 10 11 10 9 7 5 4 4 4 5 5 4 3 3 4
7 7 3 14 11 13 11 9 10 12 12 12 14 15 14 12 16 18 16 19 19 18 16 15 14 12 11 11 9 7 9 7 7 6 6 6 6 5 5 4 3 2 1
9 6 5 2 7 14 10 10 10 11 11 9 8 12 12 14 13 15 16 18 18 18 16 15 14 12 9 6 6 7 5 6 6 7 7 8 8 7 6 6 5 5 4
10 7 5 4 3 4 12 9 9 10 11 9 8 9 11 11 12 13 13 14 12 16 13 13 11 10 10 8 7 6 6 6 6 9 9 9 10 9 8 9 9 8 7
9 12 8 8 6 5 4 9 9 9 11 11 11 8 9 10 12 12 12 12 12 11 12 13 12 10 9 8 7 7 7 7 7 8 10 12 11 11 11 11 10 10 9
13 11 14 11 10 9 10 8 6 5 4 4 11 16 15 12 11 13 13 11 11 12 12 13 12 11 9 8 8 8 9 9 9 8 9 12 14 15 14 12 9 8 8
15 14 13 17 16 12 12 11 9 6 4 3 5 9 13 18 14 12 13 13 13 13 13 11 13 11 10 9 10 9 10 9 10 11 11 12 15 16 12 13 11 9 9
18 14 15 18 16 17 15 13 11 8 6 9 10 10 13 14 16 21 15 13 13 12 12 11 11 8 7 8 10 9 9 11 11 11 11 11 11 15 15 12 12 10 8
18 15 16 14 16 18 18 14 13 10 10 10 10 11 13 15 15 16 18 16 13 13 15 14 12 10 9 10 10 11 11 11 12 12 12 12 13 13 14 16 12 9 7
21 20 16 16 19 18 14 12 11 10 11 12 10 11 13 13 12 16 16 14 14 14 15 14 10 10 11 11 12 12 12 13 13 10 13 13 12 12 12 12 13 8 6
23 19 18 14 17 16 11 10 11 9 12 10 13 13 14 13 15 14 10 8 11 8 10 12 12 9 10 11 12 13 13 12 11 10 12 11 10 9 9 9 8 6 5
20 17 18 16 17 15 14 14 12 14 13 12 13 14 16 16 15 15 13 10 9 11 10 9 7 13 14 5 6 8 12 12 12 10 9 9 8 6 7 8 8 6 3
22 20 19 19 17 17 15 12 7 8 12 12 11 15 18 20 20 17 15 13 12 10 10 12 12 9 10 12 5 2 6 6 11 9 7 8 8 6 8 7 7 7 6
20 19 18 20 19 17 16 10 10 6 4 7 11 14 14 16 18 18 18 16 12 11 11 14 15 17 12 9 13 6 3 8 3 1 6 7 6 7 7 8 9 10 8
20 19 18 19 20 18 14 14 16 13 11 9 9 11 13 15 15 14 15 16 14 12 16 19 18 15 13 14 6 11 4 2 3 3 2 4 7 11 11 10 10 9 10
15 16 19 19 18 15 16 16 15 15 12 7 8 11 12 13 13 17 17 16 18 17 16 18 18 19 16 14 12 5 6 5 4 7 11 5 5 12 15 16 14 13 12
14 16 17 18 17 15 14 16 18 19 16 12 11 11 10 9 10 16 15 15 16 15 17 21 15 13 17 16 13 11 10 6 11 10 13 14 16 10 12 10 13 13 12
Wind_Direction
186 165 158 161 162 156 149 148 144 140 138 141 142 140 139 139 139 139 139 141 137 129 126 121 118 115 105 103 103 94 87 87 82 75 71 78 93 89 83 94 88 85 83
162 163 156 160 164 157 155 151 148 146 144 146 146 145 145 144 143 144 142 141 143 140 127 124 123 112 108 108 99 99 96 89 82 76 75 78 89 90 88 85 82 82 72
148 157 155 160 164 161 161 154 150 150 150 149 154 154 153 151 150 152 146 145 146 130 128 123 125 117 112 112 105 103 102 95 84 75 70 73 94 86 82 78 72 67 64
149 151 157 163 165 164 159 157 159 156 156 156 161 159 159 160 162 158 149 147 134 130 128 128 124 124 117 116 119 117 111 98 87 81 72 64 71 87 83 75 73 72 69
152 154 159 162 164 163 153 162 163 167 165 167 170 166 163 167 169 155 160 145 129 131 123 135 129 124 121 113 111 141 121 109 99 90 81 71 68 82 82 81 78 78 78
155 153 163 164 166 170 166 163 169 172 174 176 182 175 170 172 167 149 146 131 129 135 133 139 136 133 125 114 111 119 124 115 109 104 94 88 92 100 99 94 89 82 76
139 152 168 167 172 171 173 175 172 174 178 178 182 182 180 184 166 150 138 127 133 143 148 148 147 141 129 123 130 126 125 123 119 112 110 109 117 108 104 99 92 85 78
159 155 174 174 179 177 178 179 182 180 180 181 181 185 185 184 172 152 144 141 149 157 159 158 154 147 137 128 139 139 137 136 133 132 129 126 126 116 109 99 91 84 78
177 171 173 180 183 185 181 186 187 192 189 182 185 186 189 187 173 159 153 154 159 164 164 163 160 154 147 138 138 151 147 145 144 152 153 154 157 134 125 119 110 98 89
330 182 171 173 171 178 187 189 186 194 199 182 189 189 185 182 175 165 160 163 164 166 165 165 166 162 154 149 143 157 158 150 155 163 179 193 199 157 144 139 127 105 84
339 322 255 174 168 164 167 173 184 195 187 192 194 192 185 173 174 171 166 169 167 167 168 168 168 166 162 157 152 152 162 170 177 186 196 216 214 194 184 179 179 158 128
296 297 321 306 184 157 155 167 177 176 174 182 196 195 178 172 169 166 171 175 172 170 172 174 171 170 162 158 149 153 169 188 208 214 214 218 223 217 211 209 215 221 221
294 269 244 249 258 182 160 157 172 178 164 160 169 188 184 170 169 167 170 179 180 177 177 178 177 174 176 176 178 186 196 213 227 228 230 228 231 234 229 227 228 231 241
280 254 224 223 239 222 180 172 164 176 162 167 165 171 179 179 181 173 179 182 182 186 188 182 181 187 189 187 190 196 210 223 237 246 240 236 233 240 246 246 244 250 248
270 249 227 211 227 223 192 198 203 197 183 193 175 177 179 189 196 178 179 186 187 182 188 191 188 191 202 208 211 211 215 226 237 242 240 239 237 239 243 248 252 260 271
256 246 221 214 215 220 220 207 200 192 213 237 214 208 199 185 184 191 184 190 196 193 184 190 196 200 217 215 226 231 237 240 242 242 239 241 241 244 254 261 252 248 261
249 240 225 217 208 213 227 228 221 219 227 230 231 223 217 206 195 180 186 194 196 196 186 189 194 205 233 252 242 247 249 245 244 244 244 247 246 245 243 249 258 253 265
250 243 229 217 212 217 217 229 230 225 223 222 212 216 217 218 209 205 183 191 190 193 190 189 192 212 222 247 256 258 255 249 245 249 246 251 246 243 240 238 242 256 259
249 248 239 214 215 216 226 222 234 244 239 233 212 201 210 214 213 212 203 190 179 194 188 184 197 202 226 238 256 260 259 256 248 245 248 245 243 239 236 229 225 228 233
250 249 247 212 210 204 207 219 232 239 247 233 230 211 199 204 205 207 211 189 159 188 192 189 200 207 223 229 252 257 257 254 255 249 249 251 243 229 220 211 186 196 219
250 247 237 222 211 194 203 208 222 231 242 231 221 223 208 194 191 183 181 157 175 180 221 209 207 225 232 213 252 269 268 259 257 251 244 239 230 201 192 199 186 181 200
238 240 227 222 209 202 203 204 209 212 233 235 226 225 207 198 194 184 183 191 178 172 215 230 212 229 231 197 214 200 273 284 250 239 228 212 208 190 198 207 196 186 188
236 231 215 213 212 210 199 193 201 189 206 209 211 217 211 206 201 190 172 169 188 195 221 234 224 216 224 214 206 200 206 233 321 315 238 223 204 214 221 221 206 197 188
234 233 212 201 203 207 186 201 214 211 208 205 197 203 196 205 194 193 187 185 186 194 218 218 210 213 204 229 222 229 203 149 236 308 276 231 224 229 220 220 217 215 202
249 231 205 190 191 195 196 201 210 213 208 192 189 186 196 190 188 194 191 198 196 214 217 229 200 205 205 214 209 184 202 192 199 216 265 242 221 230 220 215 212 206 195
247 202 194 188 194 190 189 202 209 215 205 181 186 176 162 150 193 202 197 201 205 211 220 227 205 202 212 214 215 205 204 195 213 217 234 244 248 244 225 218 199 203 199